Sigfox identifier Datetime Temperature Humidity SNR
003BBDC3 2018-10-09 09:09:57 20.8 43 15.8
003BBDC3 2018-10-09 08:07:57 20.8 42 16
003BBDC3 2018-10-09 07:05:57 20.8 42 15.9
003BBDC3 2018-10-09 06:03:57 20.8 41 15.8
003BBDC3 2018-10-09 05:01:58 20.8 41 15.7
003BBDC3 2018-10-09 01:56:05 20.8 40 15.2
003BBDC3 2018-10-09 00:54:08 20.8 40 14.8
003BBDC3 2018-10-08 23:52:17 20.8 39 14.9
003BBDC3 2018-10-08 22:50:18 20.8 39 14.8
003BBDC3 2018-10-08 21:48:26 20.8 39 15.1
003BBDC3 2018-10-08 19:44:35 20.9 39 15.3
003BBDC3 2018-10-08 18:42:36 20.9 39 15.3
003BBDC3 2018-10-08 17:40:37 20.9 38 15.3
003BBDC3 2018-10-08 16:38:42 20.8 38 15.3
003BBDC3 2018-10-08 15:36:38 20.8 38 15.1
003BBDC3 2018-10-08 14:34:39 20.7 37 15
003BBDC3 2018-10-08 13:32:46 20.6 37 15
003BBDC3 2018-10-08 10:26:44 20.6 36 14.3
003BBDC3 2018-10-08 09:24:46 20.5 37 14.4
003BBDC3 2018-10-08 08:22:43 20.4 37 14.1
003BBDC3 2018-10-08 07:20:45 20.4 37 14.2
003BBDC3 2018-10-08 06:18:43 20.4 37 13.7
003BBDC3 2018-10-08 05:16:41 20.4 38 13.9
003BBDC3 2018-10-08 04:14:39 20.4 38 14
003BBDC3 2018-10-08 03:12:43 20.6 38 13.7
003BBDC3 2018-10-08 02:10:44 20.6 38 14.2
003BBDC3 2018-10-08 01:08:42 20.6 38 13.8
003BBDC3 2018-10-08 00:06:44 20.6 39 13.7
003BBDC3 2018-10-07 23:04:46 20.6 39 14
003BBDC3 2018-10-07 22:02:45 20.6 39 14.2
003BBDC3 2018-10-07 21:00:47 20.6 39 14.3
003BBDC3 2018-10-07 19:58:44 20.6 39 14.4
003BBDC3 2018-10-07 18:56:48 20.6 39 14.3
003BBDC3 2018-10-07 17:54:47 20.6 39 14.4
003BBDC3 2018-10-07 16:52:46 20.6 39 14
003BBDC3 2018-10-07 15:50:47 20.6 39 13.8
003BBDC3 2018-10-07 13:46:49 20.6 39 14
003BBDC3 2018-10-07 12:44:51 20.6 39 14.3
003BBDC3 2018-10-07 11:42:54 20.6 39 14.7
003BBDC3 2018-10-07 10:40:59 20.6 40 14.9
003BBDC3 2018-10-07 09:39:01 20.7 40 15.2
003BBDC3 2018-10-07 08:37:03 20.7 40 15.3
003BBDC3 2018-10-07 07:35:06 20.8 40 15.3
003BBDC3 2018-10-07 06:33:06 20.8 40 15.1
003BBDC3 2018-10-07 05:31:03 20.8 40 15.1
003BBDC3 2018-10-07 04:29:03 20.8 40 15.2
003BBDC3 2018-10-07 03:27:03 20.8 40 15.6
003BBDC3 2018-10-07 02:25:02 20.8 40 15.6
003BBDC3 2018-10-07 01:23:03 20.8 40 15.6
003BBDC3 2018-10-07 00:21:04 20.8 40 15.7
003BBDC3 2018-10-06 23:19:06 20.8 41 15.8
003BBDC3 2018-10-06 22:17:06 20.9 41 16.1
003BBDC3 2018-10-06 21:15:09 20.8 41 16
003BBDC3 2018-10-06 20:13:07 20.9 41 16.1
003BBDC3 2018-10-06 19:11:03 21 41 16.1
003BBDC3 2018-10-06 18:09:02 20.9 41 16.1
003BBDC3 2018-10-06 17:07:03 21 41 16.2
003BBDC3 2018-10-06 16:05:04 21 41 16.4
003BBDC3 2018-10-06 15:03:08 21 41 16.5
003BBDC3 2018-10-06 14:01:05 20.9 41 16.7
003BBDC3 2018-10-06 12:59:05 21 41 16.8
003BBDC3 2018-10-06 11:57:07 21 41 16.8
003BBDC3 2018-10-06 10:55:07 21 41 16.9
003BBDC3 2018-10-06 09:53:07 21 41 16.6
003BBDC3 2018-10-06 08:51:08 21 41 16.6
003BBDC3 2018-10-06 07:49:12 21 42 16.4
003BBDC3 2018-10-06 06:47:12 21 42 16.5
003BBDC3 2018-10-06 05:45:11 21 42 16.7
003BBDC3 2018-10-06 04:43:11 21.1 42 16.7
003BBDC3 2018-10-06 03:41:06 21.2 43 17
003BBDC3 2018-10-06 02:39:04 21.2 43 16.9
003BBDC3 2018-10-06 01:37:06 21.3 43 16.4
003BBDC3 2018-10-06 00:35:09 21.3 43 16.5
003BBDC3 2018-10-05 23:33:11 21.4 43 16.8
003BBDC3 2018-10-05 22:31:13 21.4 43 17
003BBDC3 2018-10-05 21:29:15 21.4 44 16
003BBDC3 2018-10-05 20:27:10 21.6 44 15.4
003BBDC3 2018-10-05 19:25:09 21.7 44 16.4
003BBDC3 2018-10-05 18:23:16 21.9 44 16
003BBDC3 2018-10-05 17:21:13 22.1 45 12.7
003BBDC3 2018-10-05 16:19:07 21.9 54 0